When you browse on this site, cookies collect data to enhance your experience and personalize the content and advertising you see.
Visit our Privacy Policy to learn more. By continuing to use the site, you agree to this use of cookies and data.

Stündliche Wetter Cavalcante

Heute, 13 Juli, Montag

Zeit Temperatur Niederschläge Wind Luftdruck Luftfeuchtigkeit
00:00 +20°C° 0 mm 2 m/S 692 mmHg 49%
01:00 +20°C° 0 mm 1 m/S 691 mmHg 50%
02:00 +20°C° 0 mm 1 m/S 691 mmHg 51%
03:00 +19°C° 0 mm 1 m/S 690 mmHg 52%
04:00 +19°C° 0 mm 1 m/S 691 mmHg 52%
05:00 +19°C° 0 mm 1 m/S 691 mmHg 52%
06:00 +18°C° 0 mm 1 m/S 691 mmHg 52%
07:00 +21°C° 0 mm 1 m/S 692 mmHg 47%
08:00 +23°C° 0 mm 2 m/S 693 mmHg 42%
09:00 +26°C° 0 mm 2 m/S 694 mmHg 36%
10:00 +27°C° 0 mm 2 m/S 694 mmHg 33%
11:00 +29°C° 0 mm 2 m/S 694 mmHg 30%
12:00 +30°C° 0 mm 2 m/S 694 mmHg 26%
13:00 +31°C° 0 mm 2 m/S 693 mmHg 25%
14:00 +31°C° 0 mm 2 m/S 693 mmHg 24%
15:00 +31°C° 0 mm 2 m/S 692 mmHg 22%
16:00 +29°C° 0 mm 2 m/S 692 mmHg 26%
17:00 +27°C° 0 mm 2 m/S 691 mmHg 30%
18:00 +24°C° 0 mm 2 m/S 691 mmHg 34%
19:00 +23°C° 0 mm 2 m/S 691 mmHg 35%
20:00 +23°C° 0 mm 2 m/S 692 mmHg 36%
21:00 +22°C° 0 mm 1 m/S 692 mmHg 37%
22:00 +22°C° 0 mm 1 m/S 692 mmHg 38%
23:00 +21°C° 0 mm 2 m/S 692 mmHg 39%

Morgen, 14 Juli, Dienstag

Zeit Temperatur Niederschläge Wind Luftdruck Luftfeuchtigkeit
00:00 +20°C° 0 mm 2 m/S 692 mmHg 41%
01:00 +21°C° 0 mm 1 m/S 692 mmHg 42%
02:00 +20°C° 0 mm 1 m/S 691 mmHg 44%
03:00 +19°C° 0 mm 1 m/S 691 mmHg 46%
04:00 +19°C° 0 mm 1 m/S 691 mmHg 47%
05:00 +19°C° 0 mm 1 m/S 691 mmHg 49%
06:00 +19°C° 0 mm 1 m/S 691 mmHg 50%
07:00 +21°C° 0 mm 1 m/S 692 mmHg 45%
08:00 +23°C° 0 mm 2 m/S 693 mmHg 41%
09:00 +26°C° 0 mm 2 m/S 694 mmHg 36%
10:00 +27°C° 0 mm 2 m/S 694 mmHg 32%
11:00 +29°C° 0 mm 2 m/S 694 mmHg 28%
12:00 +31°C° 0 mm 2 m/S 694 mmHg 24%
13:00 +31°C° 0 mm 3 m/S 693 mmHg 23%
14:00 +31°C° 0 mm 3 m/S 693 mmHg 22%
15:00 +31°C° 0 mm 3 m/S 692 mmHg 21%
16:00 +29°C° 0 mm 3 m/S 691 mmHg 26%
17:00 +27°C° 0 mm 2 m/S 691 mmHg 31%
18:00 +24°C° 0 mm 2 m/S 691 mmHg 35%
19:00 +24°C° 0 mm 2 m/S 691 mmHg 36%
20:00 +23°C° 0 mm 2 m/S 691 mmHg 38%
21:00 +22°C° 0 mm 1 m/S 692 mmHg 39%
22:00 +21°C° 0 mm 2 m/S 692 mmHg 40%
23:00 +20°C° 0 mm 2 m/S 692 mmHg 42%

übermorgen, 15 Juli, Mittwoch

Zeit Temperatur Niederschläge Wind Luftdruck Luftfeuchtigkeit
00:00 +20°C° 0 mm 2 m/S 692 mmHg 43%
01:00 +20°C° 0 mm 2 m/S 692 mmHg 45%
02:00 +19°C° 0 mm 2 m/S 691 mmHg 47%
03:00 +20°C° 0 mm 1 m/S 691 mmHg 49%
04:00 +20°C° 0 mm 1 m/S 691 mmHg 50%
05:00 +19°C° 0 mm 1 m/S 691 mmHg 51%
06:00 +19°C° 0 mm 1 m/S 691 mmHg 51%
07:00 +20°C° 0 mm 2 m/S 692 mmHg 46%
08:00 +24°C° 0 mm 3 m/S 693 mmHg 40%
09:00 +26°C° 0 mm 3 m/S 694 mmHg 35%
10:00 +28°C° 0 mm 3 m/S 694 mmHg 32%
11:00 +29°C° 0 mm 3 m/S 694 mmHg 29%
12:00 +32°C° 0 mm 4 m/S 693 mmHg 26%
13:00 +31°C° 0 mm 3 m/S 693 mmHg 25%
14:00 +31°C° 0 mm 3 m/S 692 mmHg 25%
15:00 +31°C° 0 mm 3 m/S 691 mmHg 24%
16:00 +29°C° 0 mm 2 m/S 691 mmHg 28%
17:00 +27°C° 0 mm 1 m/S 691 mmHg 32%
18:00 +24°C° 0 mm 1 m/S 690 mmHg 36%
19:00 +24°C° 0 mm 1 m/S 691 mmHg 37%
20:00 +23°C° 0 mm 1 m/S 691 mmHg 39%
21:00 +22°C° 0 mm 1 m/S 692 mmHg 40%
22:00 +22°C° 0 mm 1 m/S 692 mmHg 42%
23:00 +21°C° 0 mm 2 m/S 692 mmHg 43%

16 Juli, Donnerstag

Zeit Temperatur Niederschläge Wind Luftdruck Luftfeuchtigkeit
00:00 +20°C° 0 mm 2 m/S 692 mmHg 44%
01:00 +20°C° 0 mm 2 m/S 692 mmHg 46%
02:00 +20°C° 0 mm 2 m/S 691 mmHg 48%
03:00 +19°C° 0 mm 2 m/S 691 mmHg 49%
04:00 +19°C° 0 mm 2 m/S 691 mmHg 51%
05:00 +18°C° 0 mm 2 m/S 692 mmHg 53%
06:00 +18°C° 0 mm 2 m/S 692 mmHg 54%
07:00 +20°C° 0 mm 3 m/S 693 mmHg 54%
08:00 +21°C° 0 mm 4 m/S 694 mmHg 53%
09:00 +23°C° 0 mm 4 m/S 694 mmHg 53%
10:00 +26°C° 0 mm 4 m/S 694 mmHg 49%
11:00 +27°C° 0 mm 4 m/S 694 mmHg 45%
12:00 +29°C° 0 mm 4 m/S 694 mmHg 41%
13:00 +29°C° 0 mm 4 m/S 693 mmHg 39%
14:00 +30°C° 0 mm 3 m/S 693 mmHg 36%
15:00 +31°C° 0 mm 3 m/S 692 mmHg 33%
16:00 +29°C° 0 mm 2 m/S 692 mmHg 37%
17:00 +27°C° 0 mm 2 m/S 692 mmHg 41%
18:00 +26°C° 0 mm 2 m/S 692 mmHg 44%
19:00 +24°C° 0 mm 2 m/S 692 mmHg 46%
20:00 +23°C° 0 mm 2 m/S 692 mmHg 47%
21:00 +21°C° 0 mm 2 m/S 692 mmHg 49%
22:00 +21°C° 0 mm 2 m/S 692 mmHg 49%
23:00 +20°C° 0 mm 2 m/S 692 mmHg 49%

17 Juli, Freitag

Zeit Temperatur Niederschläge Wind Luftdruck Luftfeuchtigkeit
00:00 +20°C° 0 mm 2 m/S 692 mmHg 50%
01:00 +20°C° 0 mm 2 m/S 692 mmHg 49%
02:00 +19°C° 0 mm 2 m/S 692 mmHg 48%
03:00 +19°C° 0 mm 2 m/S 692 mmHg 48%
04:00 +18°C° 0 mm 2 m/S 692 mmHg 52%
05:00 +18°C° 0 mm 2 m/S 692 mmHg 57%
06:00 +17°C° 0 mm 2 m/S 692 mmHg 61%
07:00 +19°C° 0 mm 2 m/S 693 mmHg 58%
08:00 +21°C° 0 mm 3 m/S 694 mmHg 55%
09:00 +22°C° 0 mm 3 m/S 694 mmHg 52%
10:00 +25°C° 0 mm 3 m/S 694 mmHg 46%
11:00 +27°C° 0 mm 3 m/S 694 mmHg 40%
12:00 +29°C° 0 mm 4 m/S 694 mmHg 34%
13:00 +29°C° 0 mm 3 m/S 694 mmHg 32%
14:00 +29°C° 0 mm 3 m/S 693 mmHg 31%
15:00 +30°C° 0 mm 3 m/S 692 mmHg 30%
16:00 +28°C° 0 mm 3 m/S 692 mmHg 34%
17:00 +26°C° 0 mm 3 m/S 692 mmHg 38%
18:00 +25°C° 0 mm 2 m/S 692 mmHg 43%
19:00 +23°C° 0 mm 2 m/S 692 mmHg 45%
20:00 +21°C° 0 mm 2 m/S 692 mmHg 48%
21:00 +20°C° 0 mm 2 m/S 692 mmHg 51%
22:00 +20°C° 0 mm 2 m/S 692 mmHg 53%
23:00 +19°C° 0 mm 2 m/S 692 mmHg 54%

18 Juli, Samstag

Zeit Temperatur Niederschläge Wind Luftdruck Luftfeuchtigkeit
00:00 +19°C° 0 mm 2 m/S 692 mmHg 56%
01:00 +19°C° 0 mm 2 m/S 692 mmHg 58%
02:00 +18°C° 0 mm 2 m/S 691 mmHg 60%
03:00 +18°C° 0 mm 2 m/S 691 mmHg 62%
04:00 +17°C° 0 mm 2 m/S 691 mmHg 64%
05:00 +17°C° 0 mm 2 m/S 691 mmHg 67%
06:00 +16°C° 0 mm 2 m/S 691 mmHg 69%
07:00 +18°C° 0 mm 3 m/S 692 mmHg 65%
08:00 +20°C° 0 mm 3 m/S 693 mmHg 61%
09:00 +22°C° 0 mm 4 m/S 694 mmHg 58%
10:00 +25°C° 0 mm 4 m/S 694 mmHg 52%
11:00 +26°C° 0 mm 5 m/S 694 mmHg 47%
12:00 +28°C° 0 mm 5 m/S 694 mmHg 41%
13:00 +28°C° 0 mm 5 m/S 693 mmHg 39%
14:00 +29°C° 0 mm 4 m/S 693 mmHg 36%
15:00 +30°C° 0 mm 4 m/S 692 mmHg 34%
16:00 +28°C° 0 mm 4 m/S 692 mmHg 38%
17:00 +26°C° 0 mm 3 m/S 692 mmHg 41%
18:00 +25°C° 0 mm 3 m/S 692 mmHg 45%
19:00 +24°C° 0 mm 3 m/S 692 mmHg 47%
20:00 +24°C° 0 mm 3 m/S 692 mmHg 49%
21:00 +22°C° 0 mm 3 m/S 693 mmHg 51%
22:00 +21°C° 0 mm 2 m/S 692 mmHg 53%
23:00 +20°C° 0 mm 2 m/S 692 mmHg 55%
Mehr zeigen